Location: Petrozavodsk
(61.7857°N, 34.3593°E)
Time: 13:33:11
(UTC+03:00)

Terra - Pass Details

Date: 25 October 2019
Orbit: 701 x 703 km, 98.2° (Epoch: 18 November)

Event Time Altitude Azimuth Distance (km) Brightness Sun altitude
Exits shadow 23:29:16 15° 321° (NW) 1,854 4.5 -39.4°
Drops below altitude 10° 23:30:17 10° 329° (NNW) 2,185 5.0 -39.4°
Sets 23:32:48 0° 340° (NNW) 3,108 6.1 -39.5°
